GW1791 Weather Reports


Display with metric or nautical units.
time (UTC)temp
F
wind
direction
speed
MPH
gust
MPH
rain 1hr
in
rain 24hr
in
rain mn
in
humidity
%
barometer
mb
20260906120025 66 106 0.0 0.0 0.00 0.00 0.00 99 1019.6
20260906115525 66 88 0.0 0.0 0.00 0.00 0.00 99 1019.4
20260906115020 66 91 0.0 0.0 0.00 0.00 0.00 99 1019.5
20260906114514 66 82 0.0 0.0 0.00 0.00 0.00 99 1019.3
20260906114010 66 117 0.0 0.0 0.00 0.00 0.00 99 1019.3
20260906113509 67 114 0.0 0.0 0.00 0.00 0.00 99 1019.4
20260906113004 67 99 0.0 0.0 0.00 0.00 0.00 99 1019.2
20260906112459 67 121 0.0 0.0 0.00 0.00 0.00 99 1019.1
20260906111955 67 185 0.0 0.0 0.00 0.00 0.00 99 1019.3
20260906111454 67 157 0.0 0.0 0.00 0.00 0.00 99 1019.3
20260906110949 67 185 0.0 0.0 0.00 0.00 0.00 99 1019.3
20260906110445 67 115 0.0 0.0 0.00 0.00 0.00 99 1019.2
20260906105944 67 136 0.0 0.0 0.00 0.00 0.00 99 1019.2
20260906105440 67 149 0.0 0.0 0.00 0.00 0.00 99 1019.3
20260906104936 67 147 0.0 0.0 0.00 0.00 0.00 99 1019.0
20260906104434 67 159 0.0 0.0 0.00 0.00 0.00 99 1018.8
20260906103933 67 91 0.0 0.0 0.00 0.00 0.00 99 1019.0
20260906103432 67 118 0.0 0.0 0.00 0.00 0.00 99 1019.0
20260906102927 67 102 0.0 0.0 0.00 0.00 0.00 99 1019.0
20260906102427 67 164 0.0 0.0 0.00 0.00 0.00 99 1019.0
20260906101921 67 163 0.0 0.0 0.00 0.00 0.00 99 1019.0
20260906101417 67 129 0.0 0.0 0.00 0.00 0.00 99 1019.0
20260906100912 67 177 0.0 0.0 0.00 0.00 0.00 99 1018.8
20260906100412 67 122 0.0 0.0 0.00 0.00 0.00 99 1019.1
20260906095906 67 155 0.0 0.0 0.00 0.00 0.00 99 1018.8
20260906095402 68 113 0.0 0.0 0.00 0.00 0.00 99 1018.7
20260906094856 68 175 0.0 0.0 0.00 0.00 0.00 99 1018.6
20260906094351 68 194 0.0 0.0 0.00 0.00 0.00 99 1018.5
20260906093847 68 118 0.0 0.0 0.00 0.00 0.00 99 1018.4
20260906093343 68 84 0.0 0.0 0.00 0.00 0.00 99 1018.2
20260906092837 68 86 0.0 0.0 0.00 0.00 0.00 99 1018.2
20260906092331 68 136 0.0 0.0 0.00 0.00 0.00 99 1018.0
20260906091827 68 123 0.0 0.0 0.00 0.00 0.00 99 1018.1
20260906091323 68 140 0.0 0.0 0.00 0.00 0.00 99 1018.2
20260906090820 68 104 0.0 1.0 0.00 0.00 0.00 99 1017.8
20260906090318 68 143 0.0 0.0 0.00 0.00 0.00 99 1017.9
20260906085813 68 80 0.0 0.0 0.00 0.00 0.00 99 1018.0
20260906085311 68 120 0.0 0.0 0.00 0.00 0.00 99 1018.0
20260906084807 68 76 0.0 0.0 0.00 0.00 0.00 99 1018.1
20260906084306 68 96 0.0 0.0 0.00 0.00 0.00 99 1017.9
20260906083801 68 136 0.0 0.0 0.00 0.00 0.00 99 1018.1
20260906083257 68 86 0.0 0.0 0.00 0.00 0.00 99 1018.0
20260906082751 68 62 0.0 0.0 0.00 0.00 0.00 99 1017.9
20260906082246 68 101 0.0 0.0 0.00 0.00 0.00 99 1017.9
20260906081742 68 111 0.0 0.0 0.00 0.00 0.00 99 1017.9
20260906081238 68 137 0.0 0.0 0.00 0.00 0.00 99 1018.0
20260906080734 68 131 0.0 0.0 0.00 0.00 0.00 99 1018.0
20260906080230 68 90 0.0 0.0 0.00 0.00 0.00 99 1018.1
20260906075724 68 77 0.0 0.0 0.00 0.00 0.00 99 1018.0
20260906075224 68 93 0.0 0.0 0.00 0.00 0.00 99 1017.9
20260906074719 68 84 0.0 0.0 0.00 0.00 0.00 99 1018.0
20260906074218 68 100 0.0 0.0 0.00 0.00 0.00 99 1018.1
20260906073713 68 76 0.0 0.0 0.00 0.00 0.00 99 1018.3
20260906073208 68 59 0.0 0.0 0.00 0.00 0.00 99 1018.2
20260906072704 68 128 0.0 0.0 0.00 0.00 0.00 99 1018.1
20260906072159 68 124 0.0 0.0 0.00 0.00 0.00 99 1018.2
20260906071655 68 73 0.0 0.0 0.00 0.00 0.00 99 1018.5
20260906071154 68 75 0.0 0.0 0.00 0.00 0.00 99 1018.4
20260906070652 68 93 0.0 0.0 0.00 0.00 0.00 99 1018.4
20260906070147 68 66 0.0 0.0 0.00 0.00 0.00 99 1018.4
20260906065646 68 73 0.0 0.0 0.00 0.00 0.00 99 1018.5
20260906065142 69 98 0.0 0.0 0.00 0.00 0.00 99 1018.5
20260906064638 69 93 0.0 0.0 0.00 0.00 0.00 99 1018.5
20260906064133 69 68 0.0 0.0 0.00 0.00 0.00 99 1018.6
20260906063628 69 123 0.0 0.0 0.00 0.00 0.00 99 1018.4
20260906063124 69 93 0.0 0.0 0.00 0.00 0.00 99 1018.7
20260906062619 69 63 0.0 0.0 0.00 0.00 0.00 99 1018.6
20260906062118 69 60 0.0 0.0 0.00 0.00 0.00 99 1018.8
20260906061615 69 85 0.0 0.0 0.00 0.00 0.00 99 1018.8
20260906061114 69 57 0.0 0.0 0.00 0.00 0.00 99 1018.7
20260906060611 69 89 0.0 0.0 0.00 0.00 0.00 99 1018.6
20260906060108 69 62 0.0 0.0 0.00 0.00 0.00 99 1018.6
20260906055603 69 64 0.0 0.0 0.00 0.00 0.00 99 1018.8
20260906055058 69 51 0.0 0.0 0.00 0.00 0.00 99 1018.7
20260906054558 69 79 0.0 0.0 0.00 0.00 0.00 99 1018.8
20260906054054 69 48 0.0 0.0 0.00 0.00 0.00 99 1018.7
20260906053550 69 69 0.0 0.0 0.00 0.00 0.00 99 1018.6
20260906053045 69 57 0.0 0.0 0.00 0.00 0.00 99 1018.6
20260906052541 69 54 0.0 0.0 0.00 0.00 0.00 99 1018.5
20260906052038 69 63 0.0 0.0 0.00 0.00 0.00 99 1018.6
20260906051533 69 53 0.0 0.0 0.00 0.00 0.00 99 1018.4
20260906051028 69 56 0.0 0.0 0.00 0.00 0.00 99 1018.2
20260906050523 69 88 0.0 0.0 0.00 0.00 0.00 99 1018.2
20260906050018 69 59 0.0 0.0 0.00 0.00 0.00 99 1018.4
20260906045516 69 62 0.0 0.0 0.00 0.00 0.00 99 1018.7
20260906045012 69 56 0.0 0.0 0.00 0.00 0.00 99 1018.3
20260906044508 69 52 0.0 0.0 0.00 0.00 0.00 99 1018.5
20260906044003 69 46 0.0 0.0 0.00 0.00 0.00 99 1018.4
20260906043459 69 71 0.0 0.0 0.00 0.00 0.00 99 1018.4
20260906042955 69 58 0.0 0.0 0.00 0.00 0.00 99 1018.5
20260906042453 69 60 0.0 0.0 0.00 0.00 0.00 99 1018.5
20260906041953 69 51 0.0 0.0 0.00 0.00 0.00 99 1018.3
20260906041450 69 55 0.0 0.0 0.00 0.00 0.00 99 1018.4
20260906040949 69 52 0.0 0.0 0.00 0.00 0.00 99 1018.2
20260906040444 69 47 0.0 0.0 0.00 0.00 0.00 99 1018.4
20260906035939 70 52 0.0 0.0 0.00 0.00 0.00 99 1018.2
20260906035435 70 68 0.0 0.0 0.00 0.00 0.00 99 1018.3
20260906034930 70 74 0.0 0.0 0.00 0.00 0.00 99 1018.1
20260906034425 70 45 0.0 0.0 0.00 0.00 0.00 99 1018.3
20260906033920 71 45 0.0 0.0 0.00 0.00 0.00 99 1018.3
20260906033415 71 45 0.0 0.0 0.00 0.00 0.00 99 1018.3
20260906032911 71 45 0.0 0.0 0.00 0.00 0.00 99 1018.3
20260906032407 71 45 0.0 0.0 0.00 0.00 0.00 99 1018.2
20260906031901 71 45 0.0 0.0 0.00 0.00 0.00 99 1018.2
20260906031356 71 45 0.0 0.0 0.00 0.00 0.00 99 1018.0
20260906030851 71 45 0.0 0.0 0.00 0.00 0.00 99 1017.9
20260906030346 71 45 0.0 0.0 0.00 0.00 0.00 99 1017.9
20260906025841 71 45 0.0 0.0 0.00 0.00 0.00 99 1018.0
20260906025335 72 45 0.0 0.0 0.00 0.00 0.00 99 1017.8
20260906024834 71 45 0.0 0.0 0.00 0.00 0.00 99 1017.9
20260906024333 71 45 0.0 0.0 0.00 0.00 0.00 99 1017.8
20260906023829 72 44 0.0 0.0 0.00 0.00 0.00 99 1017.7
20260906023325 72 43 0.0 0.0 0.00 0.00 0.00 99 1017.7
20260906022820 72 44 0.0 0.0 0.00 0.00 0.00 99 1017.7
20260906022315 72 55 0.0 0.0 0.00 0.00 0.00 99 1017.7
20260906021811 72 72 0.0 0.0 0.00 0.00 0.00 99 1017.5
20260906021310 72 75 0.0 0.0 0.00 0.00 0.00 99 1017.6
20260906020804 72 75 0.0 0.0 0.00 0.00 0.00 99 1017.6
20260906020304 72 146 0.0 0.0 0.00 0.00 0.00 99 1017.5
20260906015759 72 87 0.0 0.0 0.00 0.00 0.00 99 1017.6
20260906015257 72 91 0.0 0.0 0.00 0.00 0.00 99 1017.3
20260906014752 72 103 0.0 0.0 0.00 0.00 0.00 99 1017.2
20260906014248 72 112 0.0 0.0 0.00 0.00 0.00 99 1017.0
20260906013744 72 114 0.0 0.0 0.00 0.00 0.00 99 1017.1
20260906013243 72 125 0.0 0.0 0.00 0.00 0.00 99 1016.9
20260906012739 72 125 0.0 0.0 0.00 0.00 0.00 99 1017.0
20260906012234 73 125 0.0 0.0 0.00 0.00 0.00 98 1016.9
20260906011729 73 125 0.0 0.0 0.00 0.00 0.00 98 1016.7
20260906011229 73 125 0.0 0.0 0.00 0.00 0.00 98 1016.6
20260906010724 73 125 0.0 0.0 0.00 0.00 0.00 98 1016.6
20260906010220 73 125 0.0 0.0 0.00 0.00 0.00 97 1016.7
20260906005715 74 125 0.0 0.0 0.00 0.00 0.00 97 1016.5
20260906005214 74 125 0.0 0.0 0.00 0.00 0.00 97 1016.5
20260906004713 74 125 0.0 0.0 0.00 0.00 0.00 96 1016.4
20260906004209 74 125 0.0 0.0 0.00 0.00 0.00 96 1016.5
20260906003704 74 125 0.0 0.0 0.00 0.00 0.00 96 1016.4
20260906003159 75 125 0.0 0.0 0.00 0.00 0.00 95 1016.3
20260906002654 75 125 0.0 0.0 0.00 0.00 0.00 95 1016.5
20260906002148 75 125 0.0 0.0 0.00 0.00 0.00 94 1016.3
20260906001644 75 125 0.0 0.0 0.00 0.00 0.00 94 1016.4
20260906001144 75 125 0.0 0.0 0.00 0.00 0.00 94 1016.4
20260906000639 75 125 0.0 0.0 0.00 0.00 0.00 94 1016.1
20260906000135 75 125 0.0 0.0 0.00 0.00 0.00 94 1016.1
20260905235633 75 126 0.0 0.0 0.00 0.00 0.00 93 1016.2
20260905235129 76 138 0.0 0.0 0.00 0.00 0.00 93 1016.2
20260905234624 76 136 0.0 0.0 0.00 0.00 0.00 93 1016.2
20260905234119 76 153 0.0 0.0 0.00 0.00 0.00 93 1016.0
20260905233614 76 109 0.0 0.0 0.00 0.00 0.00 92 1015.8
20260905233108 76 130 0.0 0.0 0.00 0.00 0.00 92 1016.1
20260905232604 76 127 0.0 0.0 0.00 0.00 0.00 91 1016.0
20260905232059 77 78 0.0 0.0 0.00 0.00 0.00 91 1016.0
20260905231554 77 76 0.0 0.0 0.00 0.00 0.00 91 1016.0
20260905231051 77 86 0.0 0.0 0.00 0.00 0.00 90 1016.0
20260905230550 77 93 0.0 1.0 0.00 0.00 0.00 91 1015.6
20260905230048 77 127 0.0 0.0 0.00 0.00 0.00 91 1015.5
20260905225537 78 132 0.0 0.0 0.00 0.00 0.00 91 1015.6
20260905225032 78 76 0.0 1.0 0.00 0.00 0.00 91 1015.5
20260905224527 78 71 0.0 0.0 0.00 0.00 0.00 90 1015.5
20260905224026 78 113 0.0 0.0 0.00 0.00 0.00 90 1015.6
20260905223524 78 164 0.0 0.0 0.00 0.00 0.00 90 1015.7
20260905223019 78 134 0.0 0.0 0.00 0.00 0.00 90 1015.8
20260905222514 78 123 0.0 0.0 0.00 0.00 0.00 89 1015.8
20260905222009 78 65 0.0 0.0 0.00 0.00 0.00 89 1015.8
20260905221506 78 51 0.0 0.0 0.00 0.00 0.00 89 1015.7
20260905221002 78 95 0.0 1.0 0.00 0.00 0.00 89 1015.6
20260905220457 78 93 0.0 0.0 0.00 0.00 0.00 89 1015.6
20260905215956 78 66 0.0 0.0 0.00 0.00 0.00 89 1015.7
20260905215452 78 91 0.0 0.0 0.00 0.00 0.00 89 1015.6
20260905214948 78 110 0.0 0.0 0.00 0.00 0.00 89 1015.6
20260905214444 78 46 1.0 3.0 0.00 0.00 0.00 89 1015.6
20260905213944 78 131 0.0 2.0 0.00 0.00 0.00 90 1015.6
20260905213440 78 123 0.0 1.0 0.00 0.00 0.00 91 1015.5
20260905212935 78 82 0.0 1.0 0.00 0.00 0.00 90 1015.8
20260905212430 78 111 0.0 0.0 0.00 0.00 0.00 90 1015.7
20260905211929 78 78 0.0 2.0 0.00 0.00 0.00 90 1016.0
20260905211425 78 99 0.0 2.0 0.00 0.00 0.00 90 1015.8
20260905210921 78 97 0.0 0.0 0.00 0.00 0.00 90 1016.2
20260905210420 78 90 1.0 2.0 0.00 0.00 0.00 89 1016.1
20260905205920 78 54 0.0 2.0 0.00 0.00 0.00 89 1016.2
20260905205415 78 60 0.0 0.0 0.00 0.00 0.00 90 1016.3
20260905204914 78 97 0.0 0.0 0.00 0.00 0.00 89 1016.5
20260905204410 78 67 0.0 1.0 0.00 0.00 0.00 89 1016.4
20260905203909 78 76 0.0 1.0 0.00 0.00 0.00 89 1016.6
20260905203404 78 102 0.0 0.0 0.00 0.00 0.00 89 1016.7
20260905202900 79 188 0.0 0.0 0.00 0.00 0.00 88 1016.8
20260905202355 78 128 0.0 0.0 0.00 0.00 0.00 89 1016.6
20260905201851 78 153 1.0 2.0 0.00 0.00 0.00 90 1016.5
20260905201346 77 61 1.0 3.0 0.00 0.00 0.00 90 1016.3
20260905200846 78 60 2.0 5.0 0.00 0.00 0.00 91 1016.3
20260905200342 77 63 6.0 9.0 0.00 0.00 0.00 91 1016.3
20260905195840 76 60 6.0 7.0 0.00 0.00 0.00 92 1016.2
20260905195335 76 76 1.0 2.0 0.00 0.00 0.00 93 1016.4
20260905194831 76 48 5.0 7.0 0.00 0.00 0.00 93 1016.5
20260905194325 76 69 5.0 6.0 0.00 0.00 0.00 93 1016.7
20260905193824 76 59 5.0 6.0 0.00 0.00 0.00 94 1016.7
20260905193319 76 79 4.0 6.0 0.00 0.00 0.00 94 1016.9
20260905192815 76 61 5.0 6.0 0.00 0.00 0.00 94 1017.2
20260905192311 76 64 3.0 5.0 0.00 0.00 0.00 95 1017.4
20260905191810 75 79 7.0 8.0 0.00 0.00 0.00 95 1017.6
20260905191308 76 44 4.0 6.0 0.00 0.00 0.00 95 1017.5
20260905190807 76 81 7.0 9.0 0.00 0.00 0.00 95 1017.6
20260905190307 76 46 3.0 5.0 0.00 0.00 0.00 96 1017.8
20260905185806 75 19 4.0 6.0 0.00 0.00 0.00 96 1017.9
20260905185300 75 48 3.0 3.0 0.00 0.00 0.00 96 1018.0
20260905184755 75 53 4.0 6.0 0.00 0.00 0.00 97 1017.9
20260905184253 74 74 2.0 3.0 0.00 0.00 0.00 97 1018.2
20260905183747 74 50 5.0 7.0 0.00 0.00 0.00 97 1018.1
20260905183243 74 12 4.0 5.0 0.00 0.00 0.00 97 1018.0
20260905182742 74 37 5.0 6.0 0.00 0.00 0.00 97 1017.9
20260905182242 74 34 5.0 6.0 0.00 0.00 0.00 98 1017.9
20260905181737 74 75 5.0 6.0 0.00 0.00 0.00 98 1018.1
20260905181236 74 76 3.0 3.0 0.00 0.00 0.00 98 1018.1
20260905180731 74 77 5.0 6.0 0.00 0.00 0.00 98 1018.1
20260905180226 74 77 4.0 5.0 0.00 0.00 0.00 97 1017.9
20260905175721 74 44 3.0 3.0 0.00 0.00 0.00 97 1018.2
20260905175215 74 25 4.0 6.0 0.00 0.00 0.00 98 1018.1
20260905174711 74 44 3.0 3.0 0.00 0.00 0.00 98 1018.0
20260905174206 74 42 5.0 7.0 0.00 0.00 0.00 98 1018.0
20260905173702 74 85 5.0 7.0 0.00 0.00 0.00 98 1018.0
20260905173158 74 60 5.0 6.0 0.00 0.00 0.00 98 1017.8
20260905172657 74 58 4.0 5.0 0.00 0.00 0.00 98 1017.8
20260905172151 74 75 6.0 7.0 0.00 0.00 0.00 97 1017.8
20260905171647 74 59 6.0 7.0 0.00 0.00 0.00 98 1017.8
20260905171142 74 59 7.0 8.0 0.00 0.00 0.00 98 1017.8
20260905170640 74 60 5.0 7.0 0.00 0.00 0.00 98 1017.9
20260905170134 73 77 4.0 6.0 0.00 0.00 0.00 99 1018.0
20260905165628 73 66 5.0 7.0 0.00 0.00 0.00 99 1017.9
20260905165119 73 54 5.0 6.0 0.00 0.00 0.00 99 1018.0
20260905164614 73 73 5.0 7.0 0.00 0.00 0.00 99 1017.8
20260905164113 73 72 7.0 8.0 0.00 0.00 0.00 99 1017.9
20260905163609 73 52 6.0 7.0 0.00 0.00 0.00 99 1017.8
20260905163106 73 57 7.0 8.0 0.00 0.00 0.00 99 1018.0
20260905162602 73 72 5.0 6.0 0.00 0.00 0.00 99 1017.8
20260905162100 74 83 5.0 7.0 0.00 0.00 0.00 99 1018.0
20260905161555 74 57 4.0 7.0 0.00 0.00 0.00 99 1018.0
20260905161053 74 62 5.0 6.0 0.00 0.00 0.00 99 1017.9
20260905160551 74 65 5.0 7.0 0.00 0.00 0.00 99 1017.8
20260905160046 74 36 4.0 6.0 0.00 0.00 0.00 99 1017.9
20260905155546 74 60 6.0 7.0 0.00 0.00 0.00 99 1017.8
20260905155044 74 59 6.0 7.0 0.00 0.00 0.00 99 1017.9
20260905154539 74 75 3.0 5.0 0.00 0.00 0.00 99 1017.9
20260905154035 74 44 5.0 7.0 0.00 0.00 0.00 99 1017.9
20260905153531 74 59 5.0 7.0 0.00 0.00 0.00 99 1017.9
20260905153030 74 53 3.0 3.0 0.00 0.00 0.00 99 1017.7
20260905152525 74 31 3.0 3.0 0.00 0.00 0.00 99 1017.9
20260905152021 74 50 3.0 3.0 0.00 0.00 0.00 99 1017.7
20260905151516 73 58 3.0 5.0 0.00 0.00 0.00 99 1017.5
20260905151011 74 54 5.0 6.0 0.00 0.00 0.00 99 1017.6
20260905150506 74 62 5.0 5.0 0.00 0.00 0.00 99 1017.6
20260905150003 74 58 4.0 6.0 0.00 0.00 0.00 99 1017.1
20260905145457 74 47 5.0 7.0 0.00 0.00 0.00 99 1017.3
20260905144956 74 53 4.0 5.0 0.00 0.00 0.00 99 1017.1
20260905144452 74 73 4.0 5.0 0.00 0.00 0.00 99 1017.2
20260905143951 74 53 2.0 2.0 0.00 0.00 0.00 99 1017.1
20260905143450 74 54 4.0 5.0 0.00 0.00 0.00 99 1016.9
20260905142945 74 53 3.0 3.0 0.00 0.00 0.00 99 1016.8
20260905142443 74 60 0.0 0.0 0.00 0.00 0.00 99 1016.7
20260905141939 74 53 0.0 0.0 0.00 0.00 0.00 99 1016.9
20260905141434 74 67 0.0 0.0 0.00 0.00 0.00 99 1016.9
20260905140931 74 59 0.0 0.0 0.00 0.00 0.00 99 1016.7
20260905140425 74 48 0.0 0.0 0.00 0.00 0.00 99 1016.6
20260905135924 74 58 0.0 0.0 0.00 0.00 0.00 99 1016.5
20260905135420 74 74 0.0 0.0 0.00 0.00 0.00 99 1016.6
20260905134915 74 87 0.0 0.0 0.00 0.00 0.00 99 1016.5
20260905134414 74 65 0.0 0.0 0.00 0.00 0.00 99 1016.4
20260905133909 73 81 0.0 0.0 0.00 0.00 0.00 99 1016.4
20260905133404 73 75 0.0 0.0 0.00 0.00 0.00 99 1016.4
20260905132903 74 53 0.0 0.0 0.00 0.00 0.00 99 1016.4
20260905132359 73 55 0.0 0.0 0.00 0.00 0.00 99 1016.2
20260905131858 73 62 0.0 1.0 0.00 0.00 0.00 99 1016.2
20260905131354 73 65 1.0 2.0 0.00 0.00 0.00 99 1016.1
20260905130849 73 76 1.0 2.0 0.00 0.00 0.00 99 1016.1
20260905130348 73 73 4.0 6.0 0.00 0.00 0.00 99 1016.0
20260905125843 73 54 2.0 3.0 0.00 0.00 0.00 99 1016.0
20260905125338 73 54 1.0 3.0 0.00 0.00 0.00 99 1015.8
20260905124834 73 68 0.0 0.0 0.00 0.00 0.00 99 1015.4
20260905124331 73 77 0.0 1.0 0.00 0.00 0.00 99 1015.7
20260905123830 72 61 0.0 0.0 0.00 0.00 0.00 99 1015.6
20260905123327 72 59 0.0 0.0 0.00 0.00 0.00 99 1015.4
20260905122827 72 56 0.0 0.0 0.00 0.00 0.00 99 1015.3
20260905122326 72 52 0.0 0.0 0.00 0.00 0.00 99 1015.3
20260905121822 71 52 0.0 0.0 0.00 0.00 0.00 99 1015.6
20260905121318 71 51 0.0 0.0 0.00 0.00 0.00 99 1015.4
20260905120817 70 52 0.0 0.0 0.00 0.00 0.00 99 1015.5
20260905120312 69 52 0.0 0.0 0.00 0.00 0.00 99 1015.4